Location: ?????
(31.7405°N, 35.1927°E)
Time: 06:12:18
(UTC+00:00)

SL-16 R/B - Pass Details

Date: 17 February 2020
Orbit: 843 x 847 km, 71.0° (Epoch: 09 April)

Event Time Altitude Azimuth Distance (km) Brightness Sun altitude
Exits shadow 01:18:36 18° 34° (NE) 1,964 4.4 -39.1°
Drops below altitude 10° 01:20:00 10° 30° (NNE) 2,468 5.0 -38.8°
Sets 01:22:29 0° 26° (NNE) 3,405 5.8 -38.3°
